Back to catalog

NIMBUS 2 DEB

AliveLEO
NORAD 28207·DEBRIS·🇺🇸 United States

Launched May 15, 1966 from Vandenberg Space Force Base

Loading…

Next Passes (next 24 hours)

TLE

AgingSource: Space-Track

Epoch: Sep 12, 2026, 03:16 UTC

1 28207U 66040V   26255.13652387  .00002433  00000-0  25653-2 0  9995
2 28207 100.3004 323.1361 0047630 265.8282 123.5696 13.75353853625065

Track NIMBUS 2 DEB in real time with AllMySat

Download on the App Store